Find Starlink 38247

NORAD ID: 100303 Int'l Des: 2026-184 Owner: SPXS Country: US Constellation: starlink operational

当前视图

正在加载3D地球...

About Starlink 38247

Starlink 38247 (NORAD 100303) is a starlink constellation satellite launched Aug 12, 2026 by SPXS of US. with a mass of 575.00 kg.

即将过境

Passes for default location (London). Set your location on the main map for personalized predictions.

高度历史

Loading altitude history...

两行轨道根数

1 A0303U 26184C 26247.90924276 -.00253323 00000-0 -49238-2 0 9995
2 A0303 97.2848 113.1389 0002650 145.7325 214.4097 15.48498214 4964
Epoch: Sep 4, 2026 • Age: 47 hours

当前状态

高度 433.9 km
远地点 / 近地点 N/A
速度 7.66 km/s
星下点 60.31°N, 166.87°E
发射日期 Aug 12, 2026
运行时间 25 days
类型 internet

技术详情

分类 Payload
质量 575.00 kg
干质量 530.00 kg
总质量 575.00 kg
长度 0.30 m
直径 4.10 m
跨度 29.00 m
形状 Box + pan
制造商 SPXS
平台类型 Starlink V2MO
阶段状态 In Orbit
所有者/国家 SPXS/US

Most Searched